Wind_Speed
22 17 19 21 20 18 10 11 9 7 2 8 12 8 14 19 17 18 20 21 22 22 22 23 23 21 20 18 16 16 16 16 16 15 12 10 9 9 7 7 5 7 4 4
18 19 19 20 21 15 18 13 15 10 8 8 12 10 13 18 15 16 19 23 23 22 23 23 24 24 22 21 19 19 16 17 16 14 14 12 9 7 9 7 8 6 8 8
19 16 20 22 19 17 12 17 16 10 3 9 17 17 17 11 16 17 18 21 24 24 24 25 25 25 23 22 22 22 23 20 18 13 14 13 11 12 12 8 7 6 5 4
13 19 10 14 13 16 18 17 16 15 7 11 3 12 16 16 13 16 19 20 24 25 25 24 25 24 24 23 21 22 23 25 21 19 13 15 13 10 7 4 5 4 3 3
17 15 16 15 17 18 20 15 17 7 15 15 18 10 13 16 12 18 15 18 21 28 27 25 23 22 22 22 22 21 22 23 22 20 18 14 14 10 7 5 4 3 5 3
17 5 12 16 16 16 17 15 12 13 14 14 18 13 13 3 22 7 12 10 17 24 27 26 23 23 21 21 21 21 22 23 21 19 18 16 14 12 8 6 5 3 4 1
15 16 11 14 14 14 13 14 12 13 14 13 19 16 11 11 5 12 7 5 8 22 26 26 25 23 22 22 22 21 22 22 20 18 16 14 13 12 9 7 6 5 5 3
9 15 18 12 16 14 17 18 13 15 13 16 21 12 7 11 5 2 3 7 4 18 25 25 27 25 22 24 24 22 23 22 20 17 14 13 14 10 8 9 7 5 5 6
5 9 7 9 12 15 17 15 20 22 20 16 4 12 19 4 6 4 8 2 11 15 22 24 26 25 23 23 25 24 23 22 22 18 16 14 14 12 9 11 10 8 9 5
2 8 8 8 9 15 18 9 12 12 15 17 16 13 9 6 5 5 4 2 9 14 19 23 25 24 23 23 23 24 24 25 24 21 17 14 15 15 13 11 11 11 10 8
13 8 6 5 11 14 12 15 11 19 13 13 13 8 20 8 4 4 5 3 6 5 16 21 23 23 21 22 25 26 25 25 24 21 18 17 16 15 15 12 12 11 9 6
12 9 10 12 7 10 16 15 18 9 14 13 9 5 24 9 3 6 4 2 6 4 15 17 20 23 22 24 27 27 25 24 22 23 21 18 17 17 16 14 14 13 9 5
4 9 9 9 11 11 9 15 15 19 17 15 13 5 2 7 8 6 9 3 6 5 10 16 23 25 24 26 29 29 26 25 24 26 22 21 21 19 17 16 15 13 11 7
7 14 15 11 12 9 11 12 15 17 13 12 11 13 11 6 6 6 16 7 1 9 14 18 22 24 23 23 26 29 28 28 31 26 23 22 23 23 21 22 19 15 12 9
7 13 13 6 11 6 11 17 13 16 15 17 15 5 9 6 8 9 6 6 6 11 17 23 24 26 24 23 23 24 29 34 27 25 25 22 23 24 26 28 26 19 14 8
11 12 10 11 13 13 11 13 15 20 15 14 18 14 11 8 6 7 10 4 6 12 18 22 25 25 26 25 24 24 25 26 28 22 19 21 23 27 26 20 19 23 14 8
10 9 11 14 14 14 13 13 16 15 15 15 14 10 6 8 12 17 5 5 9 15 20 24 27 27 26 25 25 25 28 25 22 20 20 20 28 28 23 20 18 13 10 8
13 12 12 13 16 17 18 9 19 10 11 16 12 12 8 9 14 19 7 5 8 16 22 24 26 25 23 22 24 27 29 28 23 15 14 17 20 23 25 23 19 13 9 7
12 9 12 12 12 15 18 9 5 29 9 17 16 16 15 15 17 15 12 4 7 16 19 21 21 22 23 25 27 29 24 22 18 15 20 21 24 24 21 22 17 12 9 8
12 9 8 12 15 18 12 6 7 8 8 14 15 13 14 16 9 8 8 6 3 12 18 20 19 19 22 23 26 22 19 19 16 17 18 22 24 23 23 20 16 13 11 9
11 11 14 13 14 13 8 9 6 9 5 14 14 13 12 8 10 10 7 2 5 11 16 19 19 19 20 21 22 18 16 14 15 18 20 23 21 22 19 18 16 13 11 11
11 9 14 9 15 6 15 6 7 9 10 11 11 11 10 10 7 4 5 4 8 13 15 18 20 18 19 21 20 17 12 12 17 21 22 20 20 21 18 16 15 13 13 11
13 14 8 5 2 4 26 5 10 10 11 11 12 12 11 10 6 4 3 3 9 13 15 17 18 20 19 21 18 15 12 14 18 21 24 26 23 19 17 16 13 13 11 10
13 10 10 12 10 4 4 3 5 9 7 11 12 12 11 10 5 2 3 6 10 12 14 16 18 20 20 21 15 14 18 19 20 23 23 24 20 18 16 14 13 11 12 10
9 5 6 12 17 13 6 1 6 9 9 10 10 9 9 8 7 3 6 11 12 13 14 15 18 20 21 19 16 18 19 21 25 24 23 19 19 15 16 13 12 11 12 11
13 12 11 5 5 2 9 7 11 13 12 9 9 10 7 6 7 6 8 10 14 16 18 17 20 19 17 21 18 17 23 22 23 23 20 17 17 16 16 15 17 17 11 16
Wind_Direction
207 226 230 229 230 269 304 290 312 130 103 284 274 316 174 171 195 198 196 192 196 198 194 194 196 197 196 196 192 191 190 198 195 201 209 215 224 232 253 260 272 289 275 272
227 223 237 240 250 238 251 258 252 226 159 264 285 292 293 159 188 209 205 193 202 199 198 198 199 199 201 203 204 200 193 193 196 207 210 218 228 231 239 238 257 264 244 251
231 221 212 249 238 243 257 241 257 337 330 285 262 259 250 175 178 199 209 210 196 202 202 197 199 204 205 206 206 208 204 203 198 190 206 212 214 229 241 268 271 270 263 257
232 246 245 259 244 246 241 239 259 276 265 272 223 292 197 166 181 186 196 207 204 197 201 204 201 203 205 206 207 206 208 202 206 200 204 206 217 225 238 266 276 230 199 163
230 238 239 237 242 238 256 258 264 268 252 261 255 252 278 183 212 185 188 191 210 193 202 204 202 196 203 202 203 202 203 208 201 209 198 218 204 216 224 221 216 197 165 156
261 217 258 245 244 245 252 249 257 265 257 256 263 257 268 199 1 119 152 148 192 203 198 199 203 196 196 196 196 193 195 202 198 207 207 203 208 197 203 203 203 175 88 152
212 230 227 239 244 230 239 239 241 232 232 245 250 242 253 310 191 33 60 63 191 195 196 197 197 197 190 191 189 187 186 188 192 196 202 199 194 197 193 195 179 186 166 182
208 201 204 195 237 232 210 237 236 238 251 252 231 230 214 264 37 306 213 188 164 190 195 198 197 201 191 190 185 183 187 189 187 190 189 191 189 191 193 183 178 181 168 173
207 244 112 217 225 241 233 220 255 264 267 272 291 9 267 224 250 290 233 158 161 189 194 197 198 199 193 191 187 183 183 188 190 187 185 188 185 186 201 185 178 178 162 172
319 270 169 199 235 232 255 262 229 243 267 273 282 182 239 166 195 320 336 7 152 176 195 193 199 197 191 193 191 186 187 193 190 185 184 186 186 187 192 190 165 165 162 166
259 250 145 200 213 232 205 243 249 267 225 253 266 264 3 113 106 285 354 313 55 193 183 199 192 188 185 189 190 189 188 185 181 181 183 187 184 187 175 178 171 165 157 158
232 292 242 226 186 215 232 217 241 235 242 276 304 272 175 266 191 211 299 22 54 278 174 195 184 174 180 184 185 187 186 182 181 188 180 186 183 184 175 180 169 164 173 185
224 244 245 222 185 187 243 256 245 240 253 245 257 302 70 5 345 320 303 94 159 186 165 183 173 172 179 182 183 183 182 182 178 189 183 184 194 188 177 177 170 170 182 186
298 267 285 296 4 349 201 222 251 262 264 267 248 283 290 38 330 327 62 49 251 165 162 169 166 175 176 178 178 180 179 179 187 191 175 195 189 185 180 179 165 180 181 191
259 264 300 288 310 295 298 296 224 244 268 277 284 354 298 40 327 27 31 3 237 171 172 167 173 178 178 178 179 179 176 187 190 185 191 198 192 188 180 181 168 186 193 208
236 270 284 288 282 259 245 271 269 278 228 260 270 283 327 315 294 2 43 326 201 185 175 172 173 178 177 182 182 179 182 175 177 180 186 195 195 186 182 199 196 184 186 212
277 280 303 292 303 299 272 242 244 259 250 240 253 246 314 352 350 322 118 291 194 185 181 177 179 182 184 182 178 180 169 170 175 183 205 204 195 195 216 190 187 178 187 208
269 284 286 276 279 273 274 34 316 299 250 252 247 279 321 313 293 292 357 169 207 189 188 186 185 179 180 178 175 170 174 184 187 196 180 184 187 189 191 192 197 193 212 222
264 259 273 282 271 275 272 342 55 312 246 34 1 355 345 332 346 53 34 18 216 192 191 191 191 182 174 174 170 169 177 188 194 189 180 183 181 191 191 186 189 201 202 205
246 257 256 273 286 282 297 52 338 311 264 29 11 0 354 341 294 56 13 1 199 191 189 187 186 184 180 177 170 167 174 185 180 173 172 174 182 176 174 182 185 183 191 195
226 221 252 237 237 250 12 351 313 254 5 358 356 346 346 329 333 332 337 299 212 189 183 185 183 184 182 181 181 173 172 176 178 168 170 180 179 173 179 182 185 185 172 177
279 220 254 298 304 236 349 315 319 0 335 344 337 328 314 303 309 327 292 245 210 190 180 182 176 179 180 181 183 184 186 179 171 173 173 177 175 177 177 178 177 172 184 186
245 263 303 191 241 48 248 3 343 341 328 323 314 310 296 298 301 302 273 208 183 181 174 176 177 177 174 175 174 181 187 177 170 172 171 174 176 176 178 175 178 181 177 169
216 289 270 282 294 38 1 76 5 348 324 311 302 297 275 273 274 256 214 170 165 172 170 175 171 169 168 168 169 181 188 178 168 168 174 168 169 173 170 168 168 166 167 174
291 358 268 274 264 263 241 151 347 324 308 308 309 298 274 273 256 194 185 175 163 159 159 172 172 167 167 173 186 200 190 175 170 174 161 159 169 159 159 157 162 175 180 187
263 245 259 281 349 250 27 318 312 310 298 288 312 311 283 279 241 179 177 183 175 173 170 159 170 170 176 185 182 177 172 167 163 161 158 165 159 161 162 174 176 180 197 193
Height
1485 1485 1485 1477 1472 1465 1466 1470 1472 1470 1475 1478 1471 1469 1466 1475 1482 1484 1490 1496 1501 1505 1509 1513 1519 1522 1526 1529 1531 1533 1537 1540 1542 1545 1546 1549 1550 1551 1551 1552 1551 1552 1552 1552
1478 1481 1471 1469 1466 1467 1468 1479 1474 1465 1469 1477 1472 1469 1462 1466 1474 1479 1482 1488 1496 1501 1504 1509 1514 1518 1522 1526 1529 1531 1534 1537 1539 1542 1544 1547 1548 1549 1549 1549 1548 1550 1549 1549
1474 1467 1468 1468 1467 1471 1473 1478 1471 1477 1466 1470 1469 1467 1459 1456 1463 1471 1476 1480 1487 1494 1499 1503 1508 1513 1518 1522 1525 1528 1530 1533 1534 1538 1541 1543 1545 1545 1546 1547 1547 1546 1546 1547
1471 1468 1468 1468 1470 1471 1480 1466 1468 1469 1481 1488 1460 1483 1474 1448 1457 1460 1467 1473 1478 1487 1493 1497 1501 1507 1512 1517 1521 1524 1526 1528 1530 1534 1538 1539 1542 1543 1544 1545 1544 1544 1545 1547
1471 1469 1468 1476 1472 1469 1474 1463 1463 1467 1476 1475 1469 1473 1450 1450 1449 1448 1457 1463 1471 1477 1486 1491 1496 1501 1506 1511 1515 1520 1524 1526 1529 1531 1535 1537 1540 1542 1543 1544 1543 1544 1545 1547
1468 1464 1467 1467 1466 1466 1466 1468 1467 1471 1474 1489 1465 1464 1457 1447 1489 1440 1446 1453 1463 1471 1479 1486 1491 1495 1501 1507 1512 1517 1520 1523 1527 1530 1532 1535 1538 1541 1542 1544 1545 1545 1545 1547
1468 1465 1467 1469 1469 1464 1468 1474 1490 1496 1490 1487 1448 1457 1448 1434 1438 1440 1446 1450 1459 1467 1473 1480 1486 1490 1496 1503 1510 1515 1517 1520 1524 1528 1530 1534 1538 1539 1540 1542 1544 1545 1547 1548
1467 1473 1460 1462 1467 1466 1467 1467 1480 1504 1488 1467 1436 1454 1447 1433 1436 1441 1446 1449 1456 1462 1469 1475 1481 1487 1494 1501 1506 1511 1514 1518 1522 1526 1529 1533 1534 1539 1541 1539 1540 1544 1545 1547
1459 1466 1455 1457 1459 1463 1459 1472 1455 1463 1451 1459 1451 1496 1442 1435 1438 1438 1440 1446 1451 1458 1464 1471 1477 1483 1491 1498 1503 1507 1510 1514 1519 1524 1527 1529 1532 1536 1538 1540 1541 1542 1544 1543
1452 1471 1452 1452 1461 1459 1458 1447 1469 1462 1488 1487 1453 1455 1446 1441 1439 1439 1438 1446 1444 1455 1461 1466 1472 1480 1488 1495 1501 1504 1506 1509 1513 1519 1523 1526 1529 1532 1534 1537 1541 1542 1544 1543
1454 1457 1457 1456 1461 1458 1462 1463 1460 1450 1454 1475 1472 1454 1440 1430 1434 1438 1440 1443 1446 1449 1458 1462 1469 1477 1485 1492 1496 1500 1502 1505 1510 1515 1520 1524 1527 1528 1531 1535 1538 1541 1543 1543
1454 1449 1457 1452 1440 1448 1445 1451 1454 1465 1471 1448 1450 1456 1445 1429 1432 1435 1438 1443 1449 1453 1454 1461 1467 1476 1482 1487 1491 1495 1499 1504 1509 1512 1515 1520 1524 1526 1530 1533 1534 1538 1541 1542
1452 1458 1461 1457 1446 1446 1455 1449 1442 1443 1438 1454 1462 1464 1423 1425 1430 1434 1438 1442 1449 1455 1455 1461 1466 1473 1478 1483 1486 1491 1495 1500 1505 1508 1511 1515 1520 1523 1527 1531 1533 1536 1537 1540
1463 1452 1451 1456 1453 1442 1452 1451 1448 1445 1452 1446 1443 1438 1426 1428 1433 1434 1439 1444 1449 1453 1457 1460 1467 1473 1478 1482 1486 1488 1491 1495 1498 1502 1508 1509 1512 1517 1523 1524 1528 1532 1534 1537
1458 1458 1448 1444 1444 1447 1450 1446 1443 1450 1444 1450 1438 1449 1435 1430 1435 1435 1443 1447 1449 1453 1457 1459 1465 1471 1476 1480 1482 1485 1488 1489 1495 1500 1504 1508 1511 1514 1519 1521 1512 1525 1530 1534
1454 1462 1455 1457 1447 1441 1451 1446 1443 1439 1436 1443 1439 1439 1427 1433 1435 1438 1444 1450 1450 1453 1456 1459 1463 1469 1472 1475 1478 1483 1486 1490 1495 1500 1505 1508 1511 1514 1518 1518 1516 1520 1526 1530
1450 1452 1457 1464 1446 1447 1455 1441 1439 1437 1432 1436 1445 1434 1431 1434 1438 1440 1443 1449 1449 1452 1455 1457 1460 1464 1468 1470 1475 1481 1485 1491 1494 1499 1502 1505 1509 1514 1516 1518 1521 1522 1525 1527
1456 1458 1458 1464 1458 1478 1439 1429 1431 1429 1428 1428 1428 1429 1433 1437 1440 1439 1437 1444 1447 1450 1454 1457 1459 1461 1466 1471 1475 1480 1484 1487 1491 1495 1499 1503 1506 1511 1513 1516 1518 1520 1523 1525
1451 1456 1464 1467 1461 1449 1440 1435 1447 1449 1437 1436 1437 1433 1435 1437 1437 1441 1446 1448 1448 1450 1455 1459 1462 1465 1468 1471 1474 1478 1483 1487 1490 1493 1497 1500 1502 1507 1511 1515 1517 1520 1523 1526
1451 1450 1463 1464 1472 1473 1439 1441 1443 1440 1448 1446 1448 1447 1446 1446 1445 1449 1452 1452 1451 1451 1455 1459 1463 1468 1472 1475 1475 1479 1483 1485 1489 1493 1496 1502 1502 1505 1509 1512 1516 1519 1523 1526
1456 1459 1462 1455 1460 1446 1443 1442 1443 1459 1459 1452 1453 1452 1453 1452 1452 1452 1453 1453 1453 1453 1456 1459 1463 1468 1473 1478 1480 1482 1484 1485 1488 1492 1498 1502 1503 1506 1510 1512 1516 1519 1522 1525
1458 1463 1457 1449 1459 1460 1451 1445 1454 1452 1452 1455 1456 1457 1456 1454 1451 1453 1453 1452 1452 1453 1455 1458 1461 1467 1471 1476 1480 1484 1486 1486 1488 1493 1497 1501 1503 1506 1509 1512 1515 1519 1522 1525
1457 1451 1456 1465 1457 1467 1461 1450 1457 1454 1454 1455 1456 1455 1454 1451 1449 1451 1453 1452 1452 1453 1455 1459 1461 1466 1470 1474 1479 1483 1486 1487 1488 1491 1495 1498 1501 1505 1509 1512 1516 1518 1522 1525
1458 1454 1453 1451 1447 1450 1452 1454 1457 1456 1457 1456 1454 1452 1451 1450 1448 1449 1452 1453 1452 1455 1456 1460 1462 1465 1469 1473 1478 1481 1482 1487 1489 1494 1498 1500 1503 1504 1509 1512 1515 1519 1522 1524
1448 1456 1452 1451 1448 1448 1452 1453 1455 1456 1456 1455 1453 1451 1449 1448 1446 1448 1450 1451 1453 1455 1458 1460 1463 1465 1469 1472 1475 1477 1477 1484 1487 1491 1497 1501 1503 1506 1509 1514 1517 1520 1521 1524
1451 1451 1454 1452 1450 1448 1455 1454 1457 1455 1454 1454 1453 1450 1449 1448 1446 1448 1450 1451 1450 1452 1455 1458 1463 1467 1470 1470 1471 1474 1478 1482 1485 1490 1496 1502 1505 1507 1511 1512 1514 1516 1517 1520